Location: Newark
(47.5833°N, 8.1500°E)
Time: 11:22:23
(UTC+00:00)

Transit 2A - Pass Details

Date: 03 November 2020
Orbit: 595 x 964 km, 66.7° (Epoch: 27 November)

Event Time Altitude Azimuth Distance (km) Brightness Sun altitude
Rises 06:53:46 0° 327° (NNW) 3,480 8.8 5.1°
Reaches altitude 10° 06:56:28 10° 332° (NNW) 2,484 8.2 5.5°
Maximum altitude 07:02:00 49° 47° (NE) 1,017 6.9 6.3°
Drops below altitude 10° 07:06:57 10° 122° (ESE) 2,226 12.1 7.0°
Sets 07:09:15 0° 128° (SE) 3,087 11.6 7.3°
